Time,TemperatureF,DewpointF,PressureIn,WindDirection,WindDirectionDegrees,WindSpeedMPH,WindSpeedGustMPH,Humidity,HourlyPrecipIn,Conditions,Clouds,dailyrainin,SoftwareType,DateUTC
2013-12-17 00:02:00,39.4,34.7,30.19,NNW,340,0.0,0.0,83,0.00,,,0.00,meteobridge,2013-12-17 08:02:00,
2013-12-17 00:08:00,39.2,34.5,30.19,NNW,340,0.0,0.0,83,0.00,,,0.00,meteobridge,2013-12-17 08:08:00,
2013-12-17 00:14:00,39.2,34.5,30.19,NNW,340,0.0,0.0,83,0.00,,,0.00,meteobridge,2013-12-17 08:14:00,
2013-12-17 00:20:00,39.0,34.3,30.19,NNW,340,0.0,0.0,83,0.00,,,0.00,meteobridge,2013-12-17 08:20:00,
2013-12-17 00:27:00,38.8,34.2,30.19,NNW,340,0.0,0.0,83,0.00,,,0.00,meteobridge,2013-12-17 08:27:00,
2013-12-17 00:33:00,38.7,34.2,30.19,NNW,340,0.0,0.0,84,0.00,,,0.00,meteobridge,2013-12-17 08:33:00,
2013-12-17 00:39:00,38.7,34.2,30.19,NNW,340,0.0,0.0,84,0.00,,,0.00,meteobridge,2013-12-17 08:39:00,
2013-12-17 00:45:00,38.8,34.3,30.19,NNW,340,0.0,0.0,84,0.00,,,0.00,meteobridge,2013-12-17 08:45:00,
2013-12-17 00:51:00,38.5,34.2,30.19,NNW,340,0.0,0.0,84,0.00,,,0.00,meteobridge,2013-12-17 08:51:00,
2013-12-17 00:58:00,38.5,34.2,30.19,NNW,340,0.0,0.0,84,0.00,,,0.00,meteobridge,2013-12-17 08:58:00,
2013-12-17 01:04:00,38.3,34.2,30.19,NNW,340,0.0,0.0,85,0.00,,,0.00,meteobridge,2013-12-17 09:04:00,
2013-12-17 01:10:00,38.3,34.2,30.19,NNW,340,0.0,0.0,85,0.00,,,0.00,meteobridge,2013-12-17 09:10:00,
2013-12-17 01:16:00,38.3,34.2,30.19,NNW,340,0.0,0.0,85,0.00,,,0.00,meteobridge,2013-12-17 09:16:00,
2013-12-17 01:22:00,38.1,34.0,30.19,NNW,340,0.0,0.0,85,0.00,,,0.00,meteobridge,2013-12-17 09:22:00,
2013-12-17 01:29:00,38.1,34.0,30.20,NNW,340,0.0,0.0,85,0.00,,,0.00,meteobridge,2013-12-17 09:29:00,
2013-12-17 01:35:00,37.9,33.8,30.20,NNW,340,0.0,0.0,85,0.00,,,0.00,meteobridge,2013-12-17 09:35:00,
2013-12-17 01:41:00,37.8,34.0,30.20,NNW,340,0.0,0.0,86,0.00,,,0.00,meteobridge,2013-12-17 09:41:00,
2013-12-17 01:47:00,37.8,34.0,30.20,NNW,340,0.0,0.0,86,0.00,,,0.00,meteobridge,2013-12-17 09:47:00,
2013-12-17 01:53:00,37.8,34.0,30.20,NNW,340,0.0,0.0,86,0.00,,,0.00,meteobridge,2013-12-17 09:53:00,
2013-12-17 02:00:00,37.8,34.0,30.20,NNW,340,0.0,0.0,86,0.00,,,0.00,meteobridge,2013-12-17 10:00:00,
2013-12-17 02:06:00,37.6,33.8,30.20,NNW,340,0.0,0.0,86,0.00,,,0.00,meteobridge,2013-12-17 10:06:00,
2013-12-17 02:12:00,37.6,33.8,30.20,NNW,340,0.0,0.0,86,0.00,,,0.00,meteobridge,2013-12-17 10:12:00,
2013-12-17 02:18:00,37.6,33.8,30.20,NNW,340,0.0,0.0,86,0.00,,,0.00,meteobridge,2013-12-17 10:18:00,
2013-12-17 02:24:00,37.4,33.6,30.20,NNW,340,0.0,0.0,86,0.00,,,0.00,meteobridge,2013-12-17 10:24:00,
2013-12-17 02:31:00,37.2,33.8,30.20,NNW,340,0.0,0.0,87,0.00,,,0.00,meteobridge,2013-12-17 10:31:00,
2013-12-17 02:37:00,37.2,33.8,30.21,NNW,340,0.0,0.0,87,0.00,,,0.00,meteobridge,2013-12-17 10:37:00,
2013-12-17 02:43:00,37.6,33.8,30.21,NNW,340,0.0,0.0,86,0.00,,,0.00,meteobridge,2013-12-17 10:43:00,
2013-12-17 02:49:00,37.6,33.8,30.21,NNW,340,0.0,0.0,86,0.00,,,0.00,meteobridge,2013-12-17 10:49:00,
2013-12-17 02:56:00,37.6,33.8,30.20,NNW,340,0.0,0.0,86,0.00,,,0.00,meteobridge,2013-12-17 10:56:00,
2013-12-17 03:02:00,37.2,33.4,30.21,NNW,340,0.0,0.0,86,0.00,,,0.00,meteobridge,2013-12-17 11:02:00,
2013-12-17 03:08:00,37.2,33.8,30.20,NNW,340,0.0,0.0,87,0.00,,,0.00,meteobridge,2013-12-17 11:08:00,
2013-12-17 03:14:00,37.0,33.6,30.20,NNW,340,0.0,0.0,87,0.00,,,0.00,meteobridge,2013-12-17 11:14:00,
2013-12-17 03:20:00,37.0,33.6,30.20,NNW,340,0.0,0.0,87,0.00,,,0.00,meteobridge,2013-12-17 11:20:00,
2013-12-17 03:27:00,36.9,33.4,30.20,NNW,340,0.0,0.0,87,0.00,,,0.00,meteobridge,2013-12-17 11:27:00,
2013-12-17 03:33:00,36.9,33.4,30.20,NNW,340,0.0,0.0,87,0.00,,,0.00,meteobridge,2013-12-17 11:33:00,
2013-12-17 03:39:00,36.7,33.3,30.20,NNW,340,0.0,0.0,87,0.00,,,0.00,meteobridge,2013-12-17 11:39:00,
2013-12-17 03:45:00,36.5,33.1,30.20,NNW,340,0.0,0.0,87,0.00,,,0.00,meteobridge,2013-12-17 11:45:00,
2013-12-17 03:51:00,36.7,33.4,30.20,North,1,0.0,0.0,88,0.00,,,0.00,meteobridge,2013-12-17 11:51:00,
2013-12-17 03:58:00,37.0,33.6,30.20,North,1,0.0,0.0,87,0.00,,,0.00,meteobridge,2013-12-17 11:58:00,
2013-12-17 04:04:00,36.9,33.4,30.20,North,1,0.0,0.0,87,0.00,,,0.00,meteobridge,2013-12-17 12:04:00,
2013-12-17 04:10:00,36.7,33.3,30.20,North,1,0.0,0.0,87,0.00,,,0.00,meteobridge,2013-12-17 12:10:00,
2013-12-17 04:16:00,36.7,33.3,30.20,North,1,0.0,0.0,87,0.00,,,0.00,meteobridge,2013-12-17 12:16:00,
2013-12-17 04:22:00,36.5,33.3,30.20,North,359,0.0,0.0,88,0.00,,,0.00,meteobridge,2013-12-17 12:22:00,
2013-12-17 04:29:00,36.7,33.4,30.20,North,359,0.0,0.0,88,0.00,,,0.00,meteobridge,2013-12-17 12:29:00,
2013-12-17 04:35:00,36.7,33.4,30.20,North,0,0.0,0.0,88,0.00,,,0.00,meteobridge,2013-12-17 12:35:00,
2013-12-17 04:41:00,36.9,33.6,30.20,North,0,0.0,0.0,88,0.00,,,0.00,meteobridge,2013-12-17 12:41:00,
2013-12-17 04:47:00,37.0,33.6,30.20,North,0,0.0,0.0,87,0.00,,,0.00,meteobridge,2013-12-17 12:47:00,
2013-12-17 04:53:00,37.2,33.8,30.20,North,0,0.0,0.0,87,0.00,,,0.00,meteobridge,2013-12-17 12:53:00,
2013-12-17 05:00:00,37.0,33.3,30.20,North,0,0.0,0.0,86,0.00,,,0.00,meteobridge,2013-12-17 13:00:00,
2013-12-17 05:06:00,37.0,33.6,30.20,North,0,0.0,0.0,87,0.00,,,0.00,meteobridge,2013-12-17 13:06:00,
2013-12-17 05:12:00,36.9,33.4,30.20,North,0,0.0,0.0,87,0.00,,,0.00,meteobridge,2013-12-17 13:12:00,
2013-12-17 05:18:00,36.9,33.4,30.20,North,0,0.0,0.0,87,0.00,,,0.00,meteobridge,2013-12-17 13:18:00,
2013-12-17 05:24:00,36.9,33.4,30.20,North,0,0.0,0.0,87,0.00,,,0.00,meteobridge,2013-12-17 13:24:00,
2013-12-17 05:31:00,36.7,33.3,30.20,North,0,0.0,0.0,87,0.00,,,0.00,meteobridge,2013-12-17 13:31:00,
2013-12-17 05:37:00,36.7,33.3,30.20,North,0,0.0,0.0,87,0.00,,,0.00,meteobridge,2013-12-17 13:37:00,
2013-12-17 05:43:00,36.5,33.1,30.20,North,0,0.0,0.0,87,0.00,,,0.00,meteobridge,2013-12-17 13:43:00,
2013-12-17 05:49:00,36.1,32.4,30.20,North,0,0.0,0.0,86,0.00,,,0.00,meteobridge,2013-12-17 13:49:00,
2013-12-17 05:56:00,36.0,32.7,30.20,North,0,0.0,0.0,88,0.00,,,0.00,meteobridge,2013-12-17 13:56:00,
2013-12-17 06:02:00,36.1,32.9,30.20,North,0,0.0,0.0,88,0.00,,,0.00,meteobridge,2013-12-17 14:02:00,
2013-12-17 06:08:00,36.1,32.9,30.20,North,0,0.0,0.0,88,0.00,,,0.00,meteobridge,2013-12-17 14:08:00,
2013-12-17 06:14:00,36.1,33.3,30.20,North,0,0.0,0.0,89,0.00,,,0.00,meteobridge,2013-12-17 14:14:00,
2013-12-17 06:20:00,36.1,32.9,30.20,North,0,0.0,0.0,88,0.00,,,0.00,meteobridge,2013-12-17 14:20:00,
2013-12-17 06:26:00,36.0,32.7,30.21,North,0,0.0,0.0,88,0.00,,,0.00,meteobridge,2013-12-17 14:26:00,
2013-12-17 06:33:00,35.8,32.5,30.21,North,0,0.0,0.0,88,0.00,,,0.00,meteobridge,2013-12-17 14:33:00,
2013-12-17 06:39:00,35.4,32.2,30.21,North,0,0.0,0.0,88,0.00,,,0.00,meteobridge,2013-12-17 14:39:00,
2013-12-17 06:45:00,35.2,32.4,30.21,North,0,0.0,0.0,89,0.00,,,0.00,meteobridge,2013-12-17 14:45:00,
2013-12-17 06:51:00,35.2,32.5,30.21,North,0,0.0,0.0,90,0.00,,,0.00,meteobridge,2013-12-17 14:51:00,
2013-12-17 06:57:00,35.2,32.5,30.21,North,0,0.0,0.0,90,0.00,,,0.00,meteobridge,2013-12-17 14:57:00,
2013-12-17 07:03:00,35.1,32.4,30.21,North,0,0.0,0.0,90,0.00,,,0.00,meteobridge,2013-12-17 15:03:00,
2013-12-17 07:10:00,35.1,32.4,30.21,North,0,0.0,0.0,90,0.00,,,0.00,meteobridge,2013-12-17 15:10:00,
2013-12-17 07:16:00,35.1,32.4,30.21,North,0,0.0,0.0,90,0.00,,,0.00,meteobridge,2013-12-17 15:16:00,
2013-12-17 07:22:00,34.9,32.2,30.21,North,0,0.0,0.0,90,0.00,,,0.00,meteobridge,2013-12-17 15:22:00,
2013-12-17 07:28:00,34.3,31.6,30.21,North,0,0.0,0.0,90,0.00,,,0.00,meteobridge,2013-12-17 15:28:00,
2013-12-17 07:30:00,34.3,31.6,30.21,North,0,0.0,0.0,90,0.00,,,0.00,meteobridge,2013-12-17 15:30:00,
2013-12-17 07:36:00,34.5,32.2,30.21,North,0,0.0,0.0,91,0.00,,,0.00,meteobridge,2013-12-17 15:36:00,
2013-12-17 07:43:00,34.7,32.5,30.21,North,0,0.0,0.0,92,0.00,,,0.00,meteobridge,2013-12-17 15:43:00,
2013-12-17 07:49:00,35.1,32.9,30.22,North,0,0.0,0.0,92,0.00,,,0.00,meteobridge,2013-12-17 15:49:00,
2013-12-17 07:55:00,35.4,33.1,30.22,North,359,0.0,0.0,91,0.00,,,0.00,meteobridge,2013-12-17 15:55:00,
2013-12-17 08:01:00,36.0,33.6,30.22,North,0,0.0,0.0,91,0.00,,,0.00,meteobridge,2013-12-17 16:01:00,
2013-12-17 08:08:00,36.1,33.4,30.22,North,0,0.0,0.0,90,0.00,,,0.00,meteobridge,2013-12-17 16:08:00,
2013-12-17 08:14:00,36.3,33.4,30.22,North,0,0.0,0.0,89,0.00,,,0.00,meteobridge,2013-12-17 16:14:00,
2013-12-17 08:20:00,36.9,34.0,30.22,North,0,0.0,0.0,89,0.00,,,0.00,meteobridge,2013-12-17 16:20:00,
2013-12-17 08:26:00,37.2,34.3,30.22,North,0,0.0,0.0,89,0.00,,,0.00,meteobridge,2013-12-17 16:26:00,
2013-12-17 08:32:00,37.8,34.9,30.22,North,359,0.0,0.0,89,0.00,,,0.00,meteobridge,2013-12-17 16:32:00,
2013-12-17 08:39:00,38.1,35.2,30.22,North,0,0.0,0.0,89,0.00,,,0.00,meteobridge,2013-12-17 16:39:00,
2013-12-17 08:45:00,38.7,35.4,30.22,North,0,0.0,0.0,88,0.00,,,0.00,meteobridge,2013-12-17 16:45:00,
2013-12-17 08:51:00,39.0,35.8,30.22,North,0,0.0,0.0,88,0.00,,,0.00,meteobridge,2013-12-17 16:51:00,
2013-12-17 08:57:00,39.7,36.5,30.22,North,0,0.0,0.0,88,0.00,,,0.00,meteobridge,2013-12-17 16:57:00,
2013-12-17 09:03:00,40.6,36.9,30.22,North,0,0.0,0.0,86,0.00,,,0.00,meteobridge,2013-12-17 17:03:00,
2013-12-17 09:09:00,41.4,37.2,30.22,NW,307,0.0,0.0,85,0.00,,,0.00,meteobridge,2013-12-17 17:09:00,
2013-12-17 09:16:00,42.3,37.4,30.22,NW,307,0.0,0.0,83,0.00,,,0.00,meteobridge,2013-12-17 17:16:00,
2013-12-17 09:22:00,43.2,38.1,30.22,NW,310,0.0,0.0,82,0.00,,,0.00,meteobridge,2013-12-17 17:22:00,
2013-12-17 09:28:00,44.1,38.3,30.22,NW,322,0.9,2.0,80,0.00,,,0.00,meteobridge,2013-12-17 17:28:00,
2013-12-17 09:34:00,44.4,38.3,30.22,NW,324,0.0,2.0,79,0.00,,,0.00,meteobridge,2013-12-17 17:34:00,
2013-12-17 09:41:00,45.3,38.8,30.22,NW,324,0.0,0.0,78,0.00,,,0.00,meteobridge,2013-12-17 17:41:00,
2013-12-17 09:47:00,46.8,39.6,30.22,NW,326,0.0,0.0,76,0.00,,,0.00,meteobridge,2013-12-17 17:47:00,
2013-12-17 09:53:00,47.5,39.9,30.22,NW,325,0.0,0.0,75,0.00,,,0.00,meteobridge,2013-12-17 17:53:00,
2013-12-17 09:59:00,47.8,39.9,30.21,NW,325,0.0,0.0,74,0.00,,,0.00,meteobridge,2013-12-17 17:59:00,
2013-12-17 10:05:00,48.2,39.9,30.22,NNW,328,0.0,0.9,73,0.00,,,0.00,meteobridge,2013-12-17 18:05:00,
2013-12-17 10:12:00,48.4,39.7,30.22,NNW,331,0.9,2.0,72,0.00,,,0.00,meteobridge,2013-12-17 18:12:00,
2013-12-17 10:18:00,48.9,39.9,30.21,NNW,340,2.0,2.9,71,0.00,,,0.00,meteobridge,2013-12-17 18:18:00,
2013-12-17 10:24:00,49.6,40.3,30.22,West,277,0.9,0.9,70,0.00,,,0.00,meteobridge,2013-12-17 18:24:00,
2013-12-17 10:30:00,50.5,41.2,30.21,NNW,336,0.0,0.9,70,0.00,,,0.00,meteobridge,2013-12-17 18:30:00,
2013-12-17 10:36:00,51.4,40.5,30.21,NW,322,0.9,2.9,66,0.00,,,0.00,meteobridge,2013-12-17 18:36:00,
2013-12-17 10:42:00,52.0,40.1,30.21,NNW,338,0.0,2.0,64,0.00,,,0.00,meteobridge,2013-12-17 18:42:00,
2013-12-17 10:48:00,52.7,40.5,30.20,NW,312,0.0,2.0,63,0.00,,,0.00,meteobridge,2013-12-17 18:48:00,
2013-12-17 10:55:00,53.8,41.0,30.20,NNW,344,0.0,0.9,62,0.00,,,0.00,meteobridge,2013-12-17 18:55:00,
2013-12-17 11:01:00,55.0,40.5,30.20,NW,308,0.9,0.9,58,0.00,,,0.00,meteobridge,2013-12-17 19:01:00,
2013-12-17 11:07:00,55.2,40.3,30.19,ENE,73,0.0,0.9,57,0.00,,,0.00,meteobridge,2013-12-17 19:07:00,
2013-12-17 11:14:00,56.1,40.1,30.19,WNW,297,0.9,2.0,55,0.00,,,0.00,meteobridge,2013-12-17 19:14:00,
2013-12-17 11:20:00,56.3,39.9,30.18,East,84,0.0,0.9,54,0.00,,,0.00,meteobridge,2013-12-17 19:20:00,
2013-12-17 11:26:00,57.2,39.7,30.18,NNE,25,0.9,2.0,52,0.00,,,0.00,meteobridge,2013-12-17 19:26:00,
2013-12-17 11:32:00,57.6,40.6,30.18,North,5,0.9,0.9,53,0.00,,,0.00,meteobridge,2013-12-17 19:32:00,
2013-12-17 11:39:00,58.1,40.1,30.17,NNW,342,0.0,0.9,51,0.00,,,0.00,meteobridge,2013-12-17 19:39:00,
2013-12-17 11:45:00,58.5,39.4,30.17,North,4,0.0,0.9,49,0.00,,,0.00,meteobridge,2013-12-17 19:45:00,
2013-12-17 11:51:00,59.0,39.4,30.17,ESE,123,0.0,0.0,48,0.00,,,0.00,meteobridge,2013-12-17 19:51:00,
2013-12-17 11:57:00,59.4,39.2,30.16,West,265,0.9,0.9,47,0.00,,,0.00,meteobridge,2013-12-17 19:57:00,
2013-12-17 12:03:00,59.4,38.7,30.16,West,278,0.0,0.9,46,0.00,,,0.00,meteobridge,2013-12-17 20:03:00,
2013-12-17 12:10:00,60.3,38.8,30.16,WSW,247,0.0,0.9,45,0.00,,,0.00,meteobridge,2013-12-17 20:10:00,
2013-12-17 12:16:00,61.2,39.7,30.15,NW,321,0.9,2.0,45,0.00,,,0.00,meteobridge,2013-12-17 20:16:00,
2013-12-17 12:22:00,60.6,39.7,30.15,NW,321,0.0,0.0,46,0.00,,,0.00,meteobridge,2013-12-17 20:22:00,
2013-12-17 12:28:00,60.4,39.6,30.14,NNE,26,0.0,0.9,46,0.00,,,0.00,meteobridge,2013-12-17 20:28:00,
2013-12-17 12:34:00,60.6,39.7,30.14,NE,55,0.0,0.9,46,0.00,,,0.00,meteobridge,2013-12-17 20:34:00,
2013-12-17 12:41:00,61.3,39.2,30.14,NW,316,0.9,2.0,44,0.00,,,0.00,meteobridge,2013-12-17 20:41:00,
2013-12-17 12:47:00,61.2,39.0,30.13,WNW,295,0.9,2.0,44,0.00,,,0.00,meteobridge,2013-12-17 20:47:00,
2013-12-17 12:53:00,61.3,39.7,30.13,WNW,291,0.9,0.9,45,0.00,,,0.00,meteobridge,2013-12-17 20:53:00,
2013-12-17 12:59:00,61.9,39.7,30.13,WNW,302,0.0,0.9,44,0.00,,,0.00,meteobridge,2013-12-17 20:59:00,
2013-12-17 13:05:00,62.1,39.9,30.12,WNW,285,0.0,0.0,44,0.00,,,0.00,meteobridge,2013-12-17 21:05:00,
2013-12-17 13:12:00,62.8,39.9,30.12,WNW,287,0.9,0.9,43,0.00,,,0.00,meteobridge,2013-12-17 21:12:00,
2013-12-17 13:18:00,62.4,39.0,30.12,NW,322,0.0,0.9,42,0.00,,,0.00,meteobridge,2013-12-17 21:18:00,
2013-12-17 13:24:00,62.2,39.4,30.12,NW,321,0.0,0.0,43,0.00,,,0.00,meteobridge,2013-12-17 21:24:00,
2013-12-17 13:30:00,62.1,39.4,30.11,NNW,328,0.0,2.0,43,0.00,,,0.00,meteobridge,2013-12-17 21:30:00,
2013-12-17 13:36:00,62.2,40.1,30.11,WNW,284,0.9,0.9,44,0.00,,,0.00,meteobridge,2013-12-17 21:36:00,
2013-12-17 13:43:00,62.4,39.6,30.11,WNW,291,0.9,0.9,43,0.00,,,0.00,meteobridge,2013-12-17 21:43:00,
2013-12-17 13:49:00,62.4,39.0,30.11,NNE,21,0.9,0.9,42,0.00,,,0.00,meteobridge,2013-12-17 21:49:00,
2013-12-17 13:55:00,62.8,39.9,30.11,East,99,0.0,0.9,43,0.00,,,0.00,meteobridge,2013-12-17 21:55:00,
2013-12-17 14:01:00,63.1,39.7,30.11,East,89,0.0,0.9,42,0.00,,,0.00,meteobridge,2013-12-17 22:01:00,
2013-12-17 14:07:00,63.7,40.1,30.11,East,82,0.0,0.9,42,0.00,,,0.00,meteobridge,2013-12-17 22:07:00,
2013-12-17 14:14:00,64.0,40.5,30.11,ENE,73,0.9,0.9,42,0.00,,,0.00,meteobridge,2013-12-17 22:14:00,
2013-12-17 14:20:00,64.2,40.1,30.11,WNW,290,0.9,2.0,41,0.00,,,0.00,meteobridge,2013-12-17 22:20:00,
2013-12-17 14:26:00,64.0,39.9,30.11,WNW,285,0.0,0.9,41,0.00,,,0.00,meteobridge,2013-12-17 22:26:00,
2013-12-17 14:32:00,64.4,40.1,30.11,NE,39,0.0,0.9,41,0.00,,,0.00,meteobridge,2013-12-17 22:32:00,
2013-12-17 14:39:00,64.8,39.2,30.11,NW,321,0.0,0.0,39,0.00,,,0.00,meteobridge,2013-12-17 22:39:00,
2013-12-17 14:45:00,64.8,37.9,30.11,SE,128,0.9,0.9,37,0.00,,,0.00,meteobridge,2013-12-17 22:45:00,
2013-12-17 14:51:00,64.4,38.3,30.10,ESE,113,0.9,0.9,38,0.00,,,0.00,meteobridge,2013-12-17 22:51:00,
2013-12-17 14:57:00,64.2,38.1,30.10,East,98,0.0,0.9,38,0.00,,,0.00,meteobridge,2013-12-17 22:57:00,
2013-12-17 15:03:00,64.6,38.5,30.10,East,98,0.0,0.0,38,0.00,,,0.00,meteobridge,2013-12-17 23:03:00,
2013-12-17 15:09:00,64.9,38.7,30.10,SSW,208,0.0,0.0,38,0.00,,,0.00,meteobridge,2013-12-17 23:09:00,
2013-12-17 15:16:00,65.3,38.3,30.10,SW,232,0.0,0.0,37,0.00,,,0.00,meteobridge,2013-12-17 23:16:00,
2013-12-17 15:22:00,65.5,39.9,30.10,WSW,241,0.0,0.9,39,0.00,,,0.00,meteobridge,2013-12-17 23:22:00,
2013-12-17 15:28:00,65.1,38.1,30.10,WSW,251,0.9,0.9,37,0.00,,,0.00,meteobridge,2013-12-17 23:28:00,
2013-12-17 15:34:00,65.7,38.7,30.10,South,182,0.0,0.0,37,0.00,,,0.00,meteobridge,2013-12-17 23:34:00,
2013-12-17 15:40:00,65.7,37.9,30.10,SSW,193,0.9,0.9,36,0.00,,,0.00,meteobridge,2013-12-17 23:40:00,
2013-12-17 15:47:00,64.9,38.1,30.10,SSE,155,0.0,0.9,37,0.00,,,0.00,meteobridge,2013-12-17 23:47:00,
2013-12-17 15:53:00,64.6,40.3,30.10,West,272,0.9,0.9,41,0.00,,,0.00,meteobridge,2013-12-17 23:53:00,
2013-12-17 15:59:00,63.7,40.8,30.10,WNW,285,0.0,0.0,43,0.00,,,0.00,meteobridge,2013-12-17 23:59:00,
2013-12-17 16:05:00,63.1,40.3,30.10,West,274,0.0,0.9,43,0.00,,,0.00,meteobridge,2013-12-18 00:05:00,
2013-12-17 16:12:00,62.8,40.5,30.10,West,274,0.0,0.0,44,0.00,,,0.00,meteobridge,2013-12-18 00:12:00,
2013-12-17 16:18:00,62.4,40.3,30.10,West,274,0.0,0.0,44,0.00,,,0.00,meteobridge,2013-12-18 00:18:00,
2013-12-17 16:24:00,61.9,40.8,30.10,West,274,0.0,0.0,46,0.00,,,0.00,meteobridge,2013-12-18 00:24:00,
2013-12-17 16:30:00,61.3,40.5,30.09,West,274,0.0,0.0,46,0.00,,,0.00,meteobridge,2013-12-18 00:30:00,
2013-12-17 16:36:00,61.0,41.2,30.09,West,274,0.0,0.0,48,0.00,,,0.00,meteobridge,2013-12-18 00:36:00,
2013-12-17 16:42:00,60.3,41.0,30.09,West,274,0.0,0.0,49,0.00,,,0.00,meteobridge,2013-12-18 00:42:00,
2013-12-17 16:49:00,59.5,40.8,30.09,West,274,0.0,0.0,50,0.00,,,0.00,meteobridge,2013-12-18 00:49:00,
2013-12-17 16:55:00,58.8,41.2,30.09,West,274,0.0,0.0,52,0.00,,,0.00,meteobridge,2013-12-18 00:55:00,
2013-12-17 17:01:00,58.3,41.2,30.09,West,274,0.0,0.0,53,0.00,,,0.00,meteobridge,2013-12-18 01:01:00,
2013-12-17 17:07:00,57.6,41.5,30.08,West,274,0.0,0.0,55,0.00,,,0.00,meteobridge,2013-12-18 01:07:00,
2013-12-17 17:14:00,57.0,41.0,30.08,West,274,0.0,0.0,55,0.00,,,0.00,meteobridge,2013-12-18 01:14:00,
2013-12-17 17:20:00,56.5,41.0,30.08,West,275,0.0,0.0,56,0.00,,,0.00,meteobridge,2013-12-18 01:20:00,
2013-12-17 17:26:00,55.9,41.4,30.08,West,276,0.0,0.0,58,0.00,,,0.00,meteobridge,2013-12-18 01:26:00,
2013-12-17 17:32:00,55.2,41.2,30.08,West,276,0.9,0.9,59,0.00,,,0.00,meteobridge,2013-12-18 01:32:00,
2013-12-17 17:38:00,54.7,41.5,30.08,West,276,0.0,0.0,61,0.00,,,0.00,meteobridge,2013-12-18 01:38:00,
2013-12-17 17:45:00,54.1,41.4,30.09,West,276,0.0,0.0,62,0.00,,,0.00,meteobridge,2013-12-18 01:45:00,
2013-12-17 17:51:00,53.8,41.5,30.09,West,276,0.0,0.0,63,0.00,,,0.00,meteobridge,2013-12-18 01:51:00,
2013-12-17 17:57:00,53.1,41.2,30.09,West,276,0.0,0.0,64,0.00,,,0.00,meteobridge,2013-12-18 01:57:00,
2013-12-17 18:03:00,52.3,41.0,30.09,West,276,0.0,0.0,65,0.00,,,0.00,meteobridge,2013-12-18 02:03:00,
2013-12-17 18:10:00,52.0,41.0,30.09,West,276,0.0,0.0,66,0.00,,,0.00,meteobridge,2013-12-18 02:10:00,
2013-12-17 18:16:00,51.6,41.4,30.09,West,276,0.0,0.0,68,0.00,,,0.00,meteobridge,2013-12-18 02:16:00,
2013-12-17 18:22:00,51.4,41.2,30.09,West,279,0.0,0.0,68,0.00,,,0.00,meteobridge,2013-12-18 02:22:00,
2013-12-17 18:28:00,51.1,41.2,30.09,West,279,0.0,0.9,69,0.00,,,0.00,meteobridge,2013-12-18 02:28:00,
2013-12-17 18:34:00,50.7,41.0,30.09,West,279,0.0,0.0,69,0.00,,,0.00,meteobridge,2013-12-18 02:34:00,
2013-12-17 18:41:00,50.4,41.0,30.09,West,279,0.0,0.0,70,0.00,,,0.00,meteobridge,2013-12-18 02:41:00,
2013-12-17 18:47:00,50.2,40.8,30.09,West,279,0.0,0.0,70,0.00,,,0.00,meteobridge,2013-12-18 02:47:00,
2013-12-17 18:53:00,49.8,40.8,30.09,West,279,0.0,0.0,71,0.00,,,0.00,meteobridge,2013-12-18 02:53:00,
2013-12-17 18:59:00,49.5,40.8,30.09,West,279,0.0,0.0,72,0.00,,,0.00,meteobridge,2013-12-18 02:59:00,
2013-12-17 19:05:00,49.3,40.6,30.09,West,279,0.0,0.0,72,0.00,,,0.00,meteobridge,2013-12-18 03:05:00,
2013-12-17 19:12:00,49.3,41.0,30.09,West,279,0.0,0.0,73,0.00,,,0.00,meteobridge,2013-12-18 03:12:00,
2013-12-17 19:18:00,49.3,41.0,30.09,West,279,0.0,0.0,73,0.00,,,0.00,meteobridge,2013-12-18 03:18:00,
2013-12-17 19:24:00,48.7,40.5,30.09,West,279,0.0,0.9,73,0.00,,,0.00,meteobridge,2013-12-18 03:24:00,
2013-12-17 19:30:00,48.4,40.8,30.09,West,279,0.0,0.9,75,0.00,,,0.00,meteobridge,2013-12-18 03:30:00,
2013-12-17 19:36:00,48.2,40.6,30.09,West,279,0.0,0.0,75,0.00,,,0.00,meteobridge,2013-12-18 03:36:00,
2013-12-17 19:43:00,47.8,40.6,30.09,West,279,0.0,0.0,76,0.00,,,0.00,meteobridge,2013-12-18 03:43:00,
2013-12-17 19:49:00,47.5,40.3,30.09,West,279,0.0,0.0,76,0.00,,,0.00,meteobridge,2013-12-18 03:49:00,
2013-12-17 19:55:00,47.5,40.6,30.09,West,279,0.0,0.0,77,0.00,,,0.00,meteobridge,2013-12-18 03:55:00,
2013-12-17 20:01:00,47.1,39.9,30.09,West,279,0.0,0.0,76,0.00,,,0.00,meteobridge,2013-12-18 04:01:00,
2013-12-17 20:07:00,46.8,39.6,30.09,West,279,0.0,0.0,76,0.00,,,0.00,meteobridge,2013-12-18 04:07:00,
2013-12-17 20:14:00,46.6,39.7,30.09,West,279,0.0,0.0,77,0.00,,,0.00,meteobridge,2013-12-18 04:14:00,
2013-12-17 20:20:00,46.4,39.9,30.09,West,279,0.0,0.0,78,0.00,,,0.00,meteobridge,2013-12-18 04:20:00,
2013-12-17 20:26:00,46.0,39.9,30.09,West,279,0.0,0.0,79,0.00,,,0.00,meteobridge,2013-12-18 04:26:00,
2013-12-17 20:32:00,45.9,40.1,30.09,West,278,0.0,0.0,80,0.00,,,0.00,meteobridge,2013-12-18 04:32:00,
2013-12-17 20:38:00,45.9,40.1,30.09,West,279,0.0,0.0,80,0.00,,,0.00,meteobridge,2013-12-18 04:38:00,
2013-12-17 20:44:00,46.0,40.3,30.09,West,279,0.0,0.9,80,0.00,,,0.00,meteobridge,2013-12-18 04:44:00,
2013-12-17 20:51:00,46.0,39.9,30.09,West,279,0.0,0.0,79,0.00,,,0.00,meteobridge,2013-12-18 04:51:00,
2013-12-17 20:57:00,45.7,39.6,30.08,West,279,0.0,0.0,79,0.00,,,0.00,meteobridge,2013-12-18 04:57:00,
2013-12-17 21:01:00,45.5,39.4,30.08,West,279,0.0,0.0,79,0.00,,,0.00,meteobridge,2013-12-18 05:01:00,
2013-12-17 21:03:00,45.5,39.7,30.08,West,279,0.0,0.0,80,0.00,,,0.00,meteobridge,2013-12-18 05:03:00,
2013-12-17 21:07:00,45.7,39.6,30.08,West,279,0.0,0.0,79,0.00,,,0.00,meteobridge,2013-12-18 05:07:00,
2013-12-17 21:09:00,45.7,39.6,30.08,West,279,0.0,0.0,79,0.00,,,0.00,meteobridge,2013-12-18 05:09:00,
2013-12-17 21:13:00,45.9,39.7,30.08,West,278,0.0,0.0,79,0.00,,,0.00,meteobridge,2013-12-18 05:13:00,
2013-12-17 21:15:00,45.7,39.2,30.08,West,278,0.0,0.0,78,0.00,,,0.00,meteobridge,2013-12-18 05:15:00,
2013-12-17 21:21:00,45.3,39.6,30.08,West,279,0.0,0.0,80,0.00,,,0.00,meteobridge,2013-12-18 05:21:00,
2013-12-17 21:28:00,45.3,39.9,30.09,West,278,0.0,0.0,81,0.00,,,0.00,meteobridge,2013-12-18 05:28:00,
2013-12-17 21:34:00,45.0,39.6,30.08,North,11,0.9,0.9,81,0.00,,,0.00,meteobridge,2013-12-18 05:34:00,
2013-12-17 21:40:00,45.0,39.6,30.08,North,11,0.0,0.0,81,0.00,,,0.00,meteobridge,2013-12-18 05:40:00,
2013-12-17 21:47:00,44.8,39.4,30.09,North,10,0.0,0.9,81,0.00,,,0.00,meteobridge,2013-12-18 05:47:00,
2013-12-17 21:53:00,44.4,39.0,30.09,North,10,0.0,0.0,81,0.00,,,0.00,meteobridge,2013-12-18 05:53:00,
2013-12-17 21:59:00,44.2,38.8,30.08,North,10,0.0,0.0,81,0.00,,,0.00,meteobridge,2013-12-18 05:59:00,
2013-12-17 22:05:00,44.1,38.8,30.08,North,10,0.0,0.9,82,0.00,,,0.00,meteobridge,2013-12-18 06:05:00,
2013-12-17 22:11:00,44.1,38.8,30.08,North,10,0.0,0.0,82,0.00,,,0.00,meteobridge,2013-12-18 06:11:00,
2013-12-17 22:18:00,44.1,39.2,30.08,North,10,0.0,0.9,83,0.00,,,0.00,meteobridge,2013-12-18 06:18:00,
2013-12-17 22:24:00,43.9,39.0,30.08,North,11,0.0,0.9,83,0.00,,,0.00,meteobridge,2013-12-18 06:24:00,
2013-12-17 22:30:00,44.1,38.8,30.08,North,11,0.0,0.0,82,0.00,,,0.00,meteobridge,2013-12-18 06:30:00,
2013-12-17 22:36:00,43.9,39.0,30.09,NW,315,0.0,0.0,83,0.00,,,0.00,meteobridge,2013-12-18 06:36:00,
2013-12-17 22:42:00,43.5,38.7,30.09,WNW,300,0.0,0.0,83,0.00,,,0.00,meteobridge,2013-12-18 06:42:00,
2013-12-17 22:49:00,43.5,38.7,30.08,WNW,300,0.0,0.0,83,0.00,,,0.00,meteobridge,2013-12-18 06:49:00,
2013-12-17 22:55:00,43.9,39.0,30.08,WNW,301,0.0,0.0,83,0.00,,,0.00,meteobridge,2013-12-18 06:55:00,
2013-12-17 23:01:00,43.7,38.8,30.09,WNW,301,0.0,0.0,83,0.00,,,0.00,meteobridge,2013-12-18 07:01:00,
2013-12-17 23:07:00,43.5,38.7,30.09,WNW,301,0.0,0.0,83,0.00,,,0.00,meteobridge,2013-12-18 07:07:00,
2013-12-17 23:14:00,43.2,38.3,30.08,WNW,301,0.0,0.0,83,0.00,,,0.00,meteobridge,2013-12-18 07:14:00,
2013-12-17 23:20:00,43.3,38.8,30.08,WNW,301,0.0,0.0,84,0.00,,,0.00,meteobridge,2013-12-18 07:20:00,
2013-12-17 23:26:00,43.2,38.3,30.08,WNW,301,0.0,0.0,83,0.00,,,0.00,meteobridge,2013-12-18 07:26:00,
2013-12-17 23:32:00,43.0,38.1,30.08,WNW,301,0.0,0.0,83,0.00,,,0.00,meteobridge,2013-12-18 07:32:00,
2013-12-17 23:38:00,42.6,38.1,30.08,WNW,301,0.0,0.0,84,0.00,,,0.00,meteobridge,2013-12-18 07:38:00,
2013-12-17 23:45:00,42.4,38.3,30.08,WNW,301,0.0,0.0,85,0.00,,,0.00,meteobridge,2013-12-18 07:45:00,
2013-12-17 23:51:00,42.6,38.5,30.07,WNW,301,0.0,0.0,85,0.00,,,0.00,meteobridge,2013-12-18 07:51:00,
2013-12-17 23:57:00,42.6,38.5,30.07,WNW,300,0.0,0.0,85,0.00,,,0.00,meteobridge,2013-12-18 07:57:00,